Djibouti-1B

operational
NORAD ID: 62402 Int'l Des: 2024-247 Owner: CERD/MONTP Country: DJ
LEOCIRCULAR

About Djibouti-1B

Description loading...

Live Position

Loading 3D Globe...

Upcoming Passes

Altitude History

Altitude vs Time

uPlot chart will show altitude changes over time

Two-Line Element Set

1 62402U 24247AB 25312.65694942 .00046571 00000-0 12999-2 0 9996
2 62402 44.9781 41.5635 0008942 312.5852 47.4279 15.36036430 49414
Epoch: Nov 8, 2025 • Age: 38 hours

Current Status

Altitude 452.9 km
Velocity 7.65 km/s
Sub-Earth Point 9.96°N, 85.93°W
Launch Date Dec 21, 2024
Age 0.8 years
Type other

Technical Details

Classification Payload
Mass 1.00 kg
Dry Mass 1.00 kg
Total Mass 1.00 kg
Length 0.10 m
Diameter 0.10 m
Span 0.10 m
Shape Box
Manufacturer MONTP
Bus Type Cubesat 1U
Phase Status In Orbit
Owner/State CERD/MONTP/DJ

Large Constellations

Loading constellations...